Regional Weather Roundup
Issued by NWS

Home | Current Version | Previous Version | Text Only | Print | Product List | Glossary Off
Versions: 1 2 3 4 5 6 7 8 9 10 11 12 13 14 15 16 17 18 19 20 21 22 23 24 25 26 27 28 29 30 31 32 33 34 35 36 37 38 39 40 41 42 43 44 45 46 47 48 49 50

000
ASUS43 KLOT 200200
RWRIL

ILLINOIS REGIONAL WEATHER ROUNDUP
NATIONAL WEATHER SERVICE CHICAGO/ROMEOVILLE IL
900 PM CDT SAT APR 19 2014

NOTE: "FAIR" INDICATES FEW OR NO CLOUDS BELOW 12,000 FEET WITH NO
SIGNIFICANT WEATHER AND/OR OBSTRUCTIONS TO VISIBILITY.

* THESE STATIONS ARE NOT UNDER NWS QUALITY CONTROL. THEY ALSO MAY NOT
  REPORT WEATHER SUCH AS PRECIPITATION OR FOG.

ILZ001-002-007-009-015-016-024-200300-
NORTHWEST ILLINOIS

CITY           SKY/WX    TMP DP  RH WIND       PRES   REMARKS
MOLINE         PTCLDY    57  35  43 SE5       30.14R
STERLING*      MOCLDY    61  34  36 SE7       30.16S
$$

ILZ003-004-008-010-011-017-018-200300-
NORTH CENTRAL ILLINOIS

CITY           SKY/WX    TMP DP  RH WIND       PRES   REMARKS
ROCKFORD       MOCLDY    60  36  40 SE13      30.19S
$$

ILZ005-006-012>014-019>023-200300-
NORTHEAST ILLINOIS

CITY           SKY/WX    TMP DP  RH WIND       PRES   REMARKS
CHICAGO-OHARE  CLOUDY    54  35  48 E6        30.23R
CHICAGO-MIDWAY MOCLDY    53  38  56 E8        30.24R
AURORA         MOCLDY    55  37  50 SE7       30.22R
WAUKEGAN       MOCLDY    41  33  73 E5        30.24R
DUPAGE AIRPORT PTCLDY    58  36  43 E6        30.22R
WHEELING       MOCLDY    50  36  58 E3        30.25R
NORTHERLY ISL    N/A     45  37  73 E2          N/A
$$

LMZ740>746-200300-
SOUTHERN LAKE MICHIGAN

STATION/POSITION SKY/WX   TEMP    WIND        PRES    VSBY  WAVE
                          AIR SEA DIR/SP/G                  HT/PER
                          (F)     (DEG/KT/KT) (MB)    (MI)  (FT/S)
WAUKEGAN HARBOR            40      70/  3/  4 1025.4R
HARRISON CRIB              44     130/  4/  6   N/A
BURNHAM HARBOR             45      CALM  /  3   N/A
CALUMET HARBOR             45      30/  2/  3 1024.8R
MICHIGAN CITY              61     100/  6/  9   N/A
$$

ILZ025>027-034>036-040-047-049-050-058-095>099-200300-
WEST-CENTRAL ILLINOIS

CITY           SKY/WX    TMP DP  RH WIND       PRES   REMARKS
QUINCY         CLEAR     60  34  37 SE7       30.15R
$$

ILZ028>032-037-038-041>044-048-051>054-059>061-200300-
CENTRAL ILLINOIS

CITY           SKY/WX    TMP DP  RH WIND       PRES   REMARKS
DECATUR        MOCLDY    60  36  40 S8        30.21R
PEORIA         PTCLDY    65  36  34 SE7       30.19R
SPRINGFIELD    MOCLDY    65  39  38 SE5       30.19R
TAYLORVILLE    NOT AVBL
$$

ILZ033-039-045-046-055>057-062-063-200300-
EAST-CENTRAL ILLINOIS

CITY           SKY/WX    TMP DP  RH WIND       PRES   REMARKS
CHAMPAIGN      MOCLDY    57  39  51 E8        30.22R
MATTOON        MOCLDY    61  44  53 SE3       30.21S
$$

ILZ079-100>102-200300-
SOUTHWEST ILLINOIS

CITY           SKY/WX    TMP DP  RH WIND       PRES   REMARKS
BELLEVILLE     MOCLDY    63  45  51 E6        30.18R
CAHOKIA*       PTCLDY    64  43  46 SE7       30.17R
$$

ILZ064>066-069>071-074>076-080>082-084>086-088>090-092>094-200300-
SOUTH-CENTRAL ILLINOIS

CITY           SKY/WX    TMP DP  RH WIND       PRES   REMARKS
CARBONDALE     PTCLDY    63  42  46 E6        30.18R
MT. VERNON     PTCLDY    57  36  44 CALM      30.21S
$$

ILZ067-068-072-073-078-083-087-091-200300-
SOUTHEAST ILLINOIS

CITY           SKY/WX    TMP DP  RH WIND       PRES   REMARKS
$$

ABBREVIATIONS USED IN REMARKS
   TC - TEMPERATURE IN CELSIUS
  WCI - WIND CHILL INDEX
   HX - HEAT INDEX
  VSB - VISIBILITY
$$




USA.gov is the U.S. government's official web portal to all federal, state and local government web resources and services.